Location: L�Adrech
(44.2500°N, 6.4167°E)
Time: 21:00:11
(UTC+00:00)

Iridium 2 - Pass Details

Date: 07 June 2020
Orbit: 505 x 514 km, 85.5° (Epoch: 13 July)

Event Time Altitude Azimuth Distance (km) Brightness Sun altitude
Rises 01:56:06 0° 348° (NNW) 2,624 8.0 -15.4°
Reaches altitude 10° 01:58:19 10° 341° (NNW) 1,735 6.9 -15.2°
Maximum altitude 02:01:51 39° 271° (W) 777 4.3 -14.8°
Enters shadow 02:03:17 27° 224° (SW) 995 4.5 -14.7°
